Weather Roundup
Issued by NWS

Home | Current Version | Previous Version | Graphics & Text | Print | Product List | Glossary Off
Versions: 1 2 3 4 5 6 7 8 9 10 11 12 13 14 15 16 17 18 19 20 21 22 23 24 25 26 27 28 29 30 31 32 33 34 35 36 37 38 39 40 41 42 43 44 45 46 47 48 49 50

000
NZUS93 KARX 280059
HRRWXR

CURRENT HOURLY OBSERVATIONS ACROSS
MUCH OF THE UPPER MISSISSIPPI VALLEY
NATIONAL WEATHER SERVICE LA CROSSE WI
800 PM CDT MON MAR 27 2017


...SOUTHEAST MINNESOTA...


CITY           SKY/WX    TMP DP  RH WIND       PRES   REMARKS
ROCHESTER      CLOUDY    43  39  86 NE3       29.97R
ROCHESTER/MAYO CLOUDY    46  40  81 CALM      29.97S
WINONA         CLOUDY    43  37  81 CALM      29.99R
AUSTIN         CLOUDY    45  39  81 E3        29.96R
ALBERT LEA     MOCLDY    45  37  76 NE3       29.97R
DODGE CENTER   PTCLDY    45  37  76 NE5       29.97R
PRESTON        CLOUDY    42  38  84 N3        29.97R
OWATONNA       CLEAR     45  36  70 E3        29.97R
FARIBAULT      MOCLDY    46  37  71 CALM      29.98R
$$

...ELSEWHERE IN MINNESOTA...


CITY           SKY/WX    TMP DP  RH WIND       PRES   REMARKS
MINNEAPOLIS    PTCLDY    50  37  61 VRB3      29.97R
INTNL FALLS    CLEAR     40  26  57 CALM      29.99R
DULUTH         PTCLDY    41  32  70 SE3       29.99R
RED WING       MOCLDY    45  36  70 CALM      29.97R
REDWOOD FALLS  CLEAR     54  33  45 E3        29.97R
MANKATO        CLEAR     49  40  71 SE7       29.98R
WORTHINGTON    CLEAR     49  39  68 SE5       29.98R
FAIRMONT       MOCLDY    48  40  73 SE3       29.98R
$$

...SOUTHWEST WISCONSIN...


CITY           SKY/WX    TMP DP  RH WIND       PRES   REMARKS
LA CROSSE      CLOUDY    46  40  79 N6        29.97R
PRAIRIE DU CHI CLOUDY    46  44  93 NW5       29.96R
BOSCOBEL       CLOUDY    49  46  90 CALM      29.96R
LONE ROCK      NOT AVBL
PLATTEVILLE    CLOUDY    47  46  97 N6        29.94S
FORT MC COY    CLOUDY    45  41  85 N7        29.98R
MAUSTON-NEW LI CLOUDY    44  43  95 CALM      29.96R FOG
VIROQUA        CLOUDY    43  43  99 N6        29.95R
WIS DELLS      CLOUDY    45  43  92 NE3       29.95R
$$

...ELSEWHERE IN WISCONSIN...


CITY           SKY/WX    TMP DP  RH WIND       PRES   REMARKS
MILWAUKEE      CLOUDY    39  36  89 NE9       29.97R WCI  33
MADISON        CLOUDY    47  44  90 N3        29.94S
GREEN BAY      CLOUDY    40  37  89 NE3       29.99R
EAU CLAIRE     CLOUDY    45  37  73 SE3       29.97R
BLACK RVR FLS  CLOUDY    44  37  75 NE3       29.98R
MEDFORD        CLOUDY    40  38  93 CALM      29.96S
WAUSAU         CLOUDY    42  38  85 CALM      29.96R
WIS RAPIDS     CLOUDY    41  40  96 NW3       29.99R
MARSHFIELD     CLOUDY    42  36  79 NE3       29.96R
RICE LAKE      CLEAR     47  36  63 CALM      29.98R
$$

...NORTHEAST IOWA...


CITY           SKY/WX    TMP DP  RH WIND       PRES   REMARKS
WATERLOO       CLOUDY    47  41  80 N6        29.96R
DUBUQUE        CLOUDY    47  43  86 N8        29.93S
DECORAH        CLOUDY    45  43  93 CALM      29.95R
MASON CITY     CLOUDY    45  39  79 NE5       29.98R
CHARLES CITY   CLOUDY    46  46 100 N7        29.96R
OELWEIN        CLOUDY    48  45  87 N6        29.95R
$$

...ELSEWHERE IN IOWA...


CITY           SKY/WX    TMP DP  RH WIND       PRES   REMARKS
DES MOINES     CLOUDY    50  41  71 N3        29.96R
IOWA CITY      CLOUDY    51  45  79 N7        29.95R
FORT DODGE     CLOUDY    46  39  76 N5        29.98R
MARSHALLTOWN   CLOUDY    47  42  83 N9        29.96R
CEDAR RAPIDS   CLOUDY    49  46  90 N3        29.94R
$$

...NORTHERN ILLINOIS...


CITY           SKY/WX    TMP DP  RH WIND       PRES   REMARKS
CHICAGO-OHARE  CLOUDY    44  38  79 NE9       29.94R
CHICAGO-MIDWAY CLOUDY    44  39  82 NE10      29.94R
MOLINE         CLOUDY    51  45  79 N6        29.93R
ROCKFORD       CLOUDY    50  44  80 NE9       29.95R
PEORIA         CLOUDY    53  50  89 N5        29.91R
$$

NOTE: "FAIR" INDICATES FEW OR NO CLOUDS BELOW 12,000 FEET WITH NO
SIGNIFICANT WEATHER AND/OR OBSTRUCTIONS TO VISIBILITY. WIND
SPEEDS ARE IN MILES-PER-HOUR.




USA.gov is the U.S. government's official web portal to all federal, state and local government web resources and services.